User: anonymous   Login
Location: Unspecified
(0.0000°N, 0.0000°E)
Time: 09:45:39
(UTC+00:00)
Language:

N. Korean satellite - Orbit

View from above orbital plane
View from above orbital plane
View from above satellite
View from above satellite

Ground track
Ground track

The orbit data is extracted from the following two-line orbital elements,

1 39026U 12072A   22276.71545047  .00030800  00000-0  76615-3 0  9993
2 39026  97.2764 266.4600 0030493 126.4114 233.9951 15.39738168545567
Epoch (UTC): 03 October 2022 17:10:14
Eccentricity: 0.0030493
inclination: 97.2764°
perigee height: 426 km
apogee height: 468 km
right ascension of ascending node: 266.4600°
argument of perigee: 126.4114°
revolutions per day: 15.39738168
mean anomaly at epoch: 233.9951°
orbit number at epoch: 54556

The dashed part of the orbit path shows where the satellite is in the earth's shadow,  

DLR